Retour au catalogue

STARLINK-31866

ActifCommunicationsVLEO
NORAD 59668·PAYLOAD·🇺🇸 United States

Lancé May 6, 2024 depuis Cape Canaveral Space Force Station

Loading…

Prochains Passages (prochaines 24 heures)

TLE

FraisSource: CelesTrak SupGP

Époque: Sep 15, 2026, 01:47 UTC

1 59668C 24084Q   26258.07479167 -.00025318  00000+0 -91722-3 0  2588
2 59668  43.0030  44.8470 0001785 274.2367  43.9255 15.27582794    14

Suivez STARLINK-31866 en temps réel avec AllMySat

Download on the App Store